EW1867 Weather Reports


Display with metric or nautical units.
time (UTC)temp
F
wind
direction
speed
MPH
gust
MPH
rain 1hr
in
rain 24hr
in
rain mn
in
humidity
%
barometer
mb
20260902045326 65 166 1.0 3.0 0.00 0.00 0.00 70 1015.4
20260902044426 65 204 1.0 4.0 0.00 0.00 0.00 69 1015.4
20260902042626 66 191 1.0 5.0 0.00 0.00 0.00 68 1015.0
20260902041726 66 193 2.0 4.0 0.00 0.00 0.00 68 1014.9
20260902035926 67 212 2.0 5.0 0.00 0.00 0.00 66 1014.7
20260902035026 67 208 2.0 7.0 0.00 0.00 0.00 65 1014.4
20260902034126 67 212 3.0 6.0 0.00 0.00 0.00 65 1014.2
20260902033226 68 210 3.0 7.0 0.00 0.00 0.00 64 1014.0
20260902032326 68 203 2.0 8.0 0.00 0.00 0.00 63 1014.0
20260902031426 68 212 2.0 6.0 0.00 0.00 0.00 62 1013.8
20260902030526 69 214 2.0 7.0 0.00 0.00 0.00 61 1013.7
20260902025626 69 220 2.0 7.0 0.00 0.00 0.00 60 1013.6
20260902024726 70 212 2.0 7.0 0.00 0.00 0.00 59 1013.5
20260902023826 70 210 2.0 5.0 0.00 0.00 0.00 58 1013.5
20260902022926 70 223 2.0 6.0 0.00 0.00 0.00 57 1013.4
20260902022026 70 216 3.0 6.0 0.00 0.00 0.00 56 1013.3
20260902021126 71 215 3.0 8.0 0.00 0.00 0.00 56 1013.5
20260902020226 71 210 2.0 10.0 0.00 0.00 0.00 55 1013.4
20260902015326 72 215 2.0 6.0 0.00 0.00 0.00 54 1013.4
20260902012626 74 197 2.0 6.0 0.00 0.00 0.00 52 1013.3
20260902011726 74 224 2.0 6.0 0.00 0.00 0.00 51 1013.1
20260902010826 75 217 2.0 6.0 0.00 0.00 0.00 51 1013.1
20260902005926 75 201 2.0 5.0 0.00 0.00 0.00 50 1013.1
20260902004126 76 208 2.0 10.0 0.00 0.00 0.00 48 1013.0
20260902002326 77 209 3.0 7.0 0.00 0.00 0.00 46 1013.0
20260902001426 77 218 3.0 6.0 0.00 0.00 0.00 45 1013.0
20260902000526 78 221 2.0 6.0 0.00 0.00 0.00 45 1013.1
20260901235626 78 220 2.0 6.0 0.00 0.00 0.00 46 1013.2
20260901233826 78 123 2.0 7.0 0.00 0.00 0.00 46 1013.2
20260901232926 78 196 2.0 8.0 0.00 0.00 0.00 46 1013.2
20260901231126 78 153 2.0 5.0 0.00 0.00 0.00 44 1013.4
20260901230226 78 153 3.0 7.0 0.00 0.00 0.00 44 1013.5
20260901225326 78 214 2.0 7.0 0.00 0.00 0.00 44 1013.4
20260901224426 78 187 2.0 7.0 0.00 0.00 0.00 45 1013.4
20260901223526 77 127 3.0 9.0 0.00 0.00 0.00 46 1013.6
20260901222626 78 164 3.0 8.0 0.00 0.00 0.00 44 1013.7
20260901221726 77 107 2.0 6.0 0.00 0.00 0.00 47 1013.6
20260901220826 78 174 3.0 7.0 0.00 0.00 0.00 46 1013.8
20260901215926 77 113 2.0 7.0 0.00 0.00 0.00 48 1013.9
20260901215026 78 171 2.0 6.0 0.00 0.00 0.00 49 1013.8
20260901214126 77 217 3.0 9.0 0.00 0.00 0.00 48 1013.9
20260901213226 76 132 3.0 10.0 0.00 0.00 0.00 50 1013.9
20260901212326 78 165 2.0 7.0 0.00 0.00 0.00 49 1014.0
20260901211426 78 199 1.0 8.0 0.00 0.00 0.00 49 1013.9
20260901210526 77 183 2.0 7.0 0.00 0.00 0.00 50 1013.9
20260901205626 76 143 2.0 8.0 0.00 0.00 0.00 50 1014.1
20260901204726 77 192 2.0 8.0 0.00 0.00 0.00 51 1014.4
20260901203826 76 178 2.0 8.0 0.00 0.00 0.00 52 1014.5
20260901202926 75 150 2.0 8.0 0.00 0.00 0.00 53 1014.7
20260901202026 75 193 3.0 7.0 0.00 0.00 0.00 54 1014.8
20260901201126 74 219 2.0 8.0 0.00 0.00 0.00 55 1014.9
20260901200226 74 202 2.0 6.0 0.00 0.00 0.00 55 1014.9
20260901195326 75 214 3.0 7.0 0.00 0.00 0.00 54 1014.9
20260901194426 75 187 2.0 6.0 0.00 0.00 0.00 54 1015.1
20260901192626 74 151 2.0 7.0 0.00 0.00 0.00 55 1015.3
20260901191726 74 125 3.0 6.0 0.00 0.00 0.00 56 1015.0
20260901190826 74 160 3.0 7.0 0.00 0.00 0.00 55 1015.1
20260901185926 72 103 3.0 7.0 0.00 0.00 0.00 57 1015.2
20260901185026 73 170 3.0 6.0 0.00 0.00 0.00 57 1015.3
20260901184126 72 144 2.0 8.0 0.00 0.00 0.00 57 1015.3
20260901183226 72 184 2.0 8.0 0.00 0.00 0.00 59 1015.3
20260901182326 71 213 1.0 6.0 0.00 0.00 0.00 59 1015.4
20260901181426 70 199 1.0 4.0 0.00 0.00 0.00 63 1015.3
20260901175626 69 114 1.0 5.0 0.00 0.00 0.00 66 1015.4
20260901174726 70 124 2.0 4.0 0.00 0.00 0.00 64 1015.3
20260901172926 69 133 1.0 5.0 0.00 0.00 0.00 64 1015.3
20260901171126 69 120 2.0 7.0 0.00 0.00 0.00 64 1015.3
20260901170226 69 111 2.0 5.0 0.00 0.00 0.00 65 1015.2
20260901165326 68 103 2.0 7.0 0.00 0.00 0.00 66 1015.1
20260901164426 68 108 1.0 6.0 0.00 0.00 0.00 67 1015.0
20260901163526 66 191 1.0 4.0 0.00 0.00 0.00 70 1015.0
20260901162626 66 182 2.0 4.0 0.00 0.00 0.00 69 1015.1
20260901161726 66 193 2.0 8.0 0.00 0.00 0.00 70 1015.0
20260901160826 66 210 2.0 6.0 0.00 0.00 0.00 70 1014.8
20260901155926 65 129 3.0 7.0 0.00 0.00 0.00 72 1014.7
20260901155026 65 112 2.0 6.0 0.00 0.00 0.00 72 1014.6
20260901154126 65 122 2.0 6.0 0.00 0.00 0.00 73 1014.5
20260901153226 64 122 2.0 6.0 0.00 0.00 0.00 73 1014.3
20260901152326 63 101 2.0 7.0 0.00 0.00 0.00 75 1014.2
20260901151426 62 109 2.0 4.0 0.00 0.00 0.00 77 1014.0
20260901150526 62 117 2.0 6.0 0.00 0.00 0.00 78 1014.0
20260901145626 61 100 1.0 6.0 0.00 0.00 0.00 78 1014.0
20260901144726 61 111 1.0 4.0 0.00 0.00 0.00 79 1013.9
20260901143826 60 123 1.0 5.0 0.00 0.00 0.00 80 1013.8
20260901142926 60 105 1.0 4.0 0.00 0.00 0.00 81 1013.5
20260901140226 59 109 2.0 4.0 0.00 0.00 0.00 81 1013.2
20260901135326 59 98 2.0 7.0 0.00 0.00 0.00 81 1013.0
20260901134426 59 108 2.0 8.0 0.00 0.00 0.00 81 1013.1
20260901132626 59 101 1.0 5.0 0.00 0.00 0.00 82 1013.0
20260901131726 59 111 1.0 5.0 0.00 0.00 0.00 82 1012.9
20260901130826 59 104 2.0 4.0 0.00 0.00 0.00 82 1012.6
20260901125926 59 97 1.0 6.0 0.00 0.00 0.00 82 1012.4
20260901125026 59 105 2.0 6.0 0.00 0.00 0.00 82 1012.7
20260901124126 59 102 2.0 7.0 0.00 0.00 0.00 82 1012.5
20260901122326 59 99 2.0 7.0 0.00 0.00 0.00 81 1012.5
20260901121426 59 106 2.0 5.0 0.00 0.00 0.00 81 1012.6
20260901120526 59 108 2.0 5.0 0.00 0.00 0.00 81 1012.6
20260901114726 59 109 1.0 5.0 0.00 0.00 0.00 81 1012.2
20260901113826 59 103 2.0 6.0 0.00 0.00 0.00 81 1012.1
20260901112926 59 104 1.0 5.0 0.00 0.00 0.00 81 1012.1
20260901112026 59 107 2.0 6.0 0.00 0.00 0.00 81 1012.0
20260901111126 59 109 2.0 6.0 0.00 0.00 0.00 80 1012.0
20260901105326 59 104 2.0 6.0 0.00 0.00 0.00 80 1012.1
20260901104426 59 101 2.0 5.0 0.00 0.00 0.00 80 1012.0
20260901102626 60 103 3.0 10.0 0.00 0.00 0.00 79 1011.9
20260901101726 60 104 3.0 9.0 0.00 0.00 0.00 79 1011.8
20260901100826 60 100 3.0 9.0 0.00 0.00 0.00 79 1012.0
20260901095926 60 104 2.0 9.0 0.00 0.00 0.00 79 1012.1
20260901095026 60 104 3.0 8.0 0.00 0.00 0.00 80 1012.1
20260901094126 60 95 3.0 8.0 0.00 0.00 0.00 79 1012.1
20260901093226 60 101 2.0 7.0 0.00 0.00 0.00 79 1012.1
20260901092326 60 103 3.0 8.0 0.00 0.00 0.00 80 1012.1
20260901090526 60 100 3.0 9.0 0.00 0.00 0.00 80 1012.1
20260901085626 59 100 2.0 8.0 0.00 0.00 0.00 80 1012.1
20260901083826 59 99 4.0 11.0 0.00 0.00 0.00 80 1012.2
20260901082926 59 94 3.0 9.0 0.00 0.00 0.00 80 1012.0
20260901082026 59 95 3.0 8.0 0.00 0.00 0.00 80 1012.0
20260901081126 59 91 3.0 7.0 0.00 0.00 0.00 80 1012.0
20260901075326 59 97 3.0 9.0 0.00 0.00 0.00 80 1011.8
20260901074426 60 100 3.0 9.0 0.00 0.00 0.00 80 1011.7
20260901073526 60 95 3.0 9.0 0.00 0.00 0.00 80 1011.7
20260901072626 60 99 3.0 7.0 0.00 0.00 0.00 80 1011.7
20260901071726 60 103 3.0 8.0 0.00 0.00 0.00 80 1011.7
20260901070826 60 98 3.0 8.0 0.00 0.00 0.00 79 1011.6
20260901065926 60 98 2.0 7.0 0.00 0.00 0.00 79 1011.6
20260901065026 60 99 3.0 9.0 0.00 0.00 0.00 79 1011.6
20260901064126 61 102 2.0 8.0 0.00 0.00 0.00 79 1011.6
20260901063226 61 106 2.0 7.0 0.00 0.00 0.00 78 1011.7
20260901062326 61 113 2.0 6.0 0.00 0.00 0.00 78 1011.6
20260901061426 61 113 2.0 7.0 0.00 0.00 0.00 78 1011.6
20260901060526 61 113 2.0 5.0 0.00 0.00 0.00 78 1011.5
20260901053826 62 120 2.0 7.0 0.00 0.00 0.00 77 1011.6
20260901052926 62 114 2.0 7.0 0.00 0.00 0.00 77 1011.6
20260901052026 62 114 1.0 7.0 0.00 0.00 0.00 77 1011.6
20260901050226 62 124 2.0 10.0 0.00 0.00 0.00 76 1011.5